Simultaneous Nadir Overpasses (SNOs) Predictions

Prediction of SNOs between METOP-B and TERRA Satellite Orbit:

Table of predicted SNOs for the next 14.0 days since TLE Epoch: 6/2/2018
Index Date (METOP-B) Time (METOP-B) Lat,Lon (METOP-B) SZA (METOP-B ) Date (TERRA) Time (TERRA) Lat,Lon (TERRA) SZA (TERRA ) Distance(km) Time Diff (sec)
1 06/02/2018 02:17:17 81.35,-165.76 62.32 06/02/2018 02:16:22 81.36,-165.65 62.31 1.90 55
2 06/04/2018 21:00:58 -81.35, 92.92 118.09 06/04/2018 21:01:13 -81.34, 92.80 118.10 2.14 15
3 06/04/2018 21:51:38 81.35, -99.60 61.93 06/04/2018 21:50:39 81.35, -99.43 61.92 2.77 59
4 06/07/2018 16:35:18 -81.35, 159.46 118.37 06/07/2018 16:35:29 -81.35, 159.40 118.38 1.07 11
5 06/07/2018 17:25:57 81.36, -32.66 61.69 06/07/2018 17:24:55 81.36, -32.86 61.64 3.26 62
6 06/10/2018 12:09:37 -81.35,-134.01 118.61 06/10/2018 12:09:44 -81.36,-134.03 118.61 0.78 7
7 06/10/2018 13:00:16 81.36, 33.85 61.46 06/10/2018 12:59:10 81.36, 33.68 61.41 2.93 66
8 06/13/2018 07:43:58 -81.35, -67.90 118.85 06/13/2018 07:44:01 -81.35, -67.88 118.85 0.69 3




NCC Satellite Simultaneous Nadir Overpasses (SNOs) Prediction Service
